Location: NJAA Observatory
(40.6819°N, 74.8979°W)
Time: 10:08:23
(UTC-04:00)

S-56A Canister/Altair - Visible Passes

Search period start: 04 August 2015 00:00
Search period end: 14 August 2015 00:00
Orbit: 637 x 2498 km, 38.9° (Epoch: 04 August)

Date Brightness Start Highest point End Pass type
(mag) Time Alt. Az. Time Alt. Az. Time Alt. Az.
04 Aug 10.6 01:25:49 13° ESE 01:25:49 13° ESE 01:26:56 10° ESE visible
04 Aug 9.1 03:23:14 36° SSW 03:25:46 44° SSE 03:32:20 10° E visible
04 Aug 8.2 05:21:46 10° WSW 05:30:05 73° S 05:35:40 10° E visible
05 Aug 9.2 02:52:19 41° S 02:53:17 42° SSE 03:00:16 10° E visible
05 Aug 8.3 04:49:44 13° WSW 04:57:46 72° S 05:03:42 10° E visible
06 Aug 9.4 02:21:21 40° SE 02:21:21 40° SE 02:28:09 10° E visible
06 Aug 8.5 04:18:46 21° WSW 04:25:23 70° S 04:31:44 10° E visible
07 Aug 9.7 01:50:20 34° SE 01:50:20 34° SE 01:55:57 10° E visible
07 Aug 8.6 03:47:44 30° WSW 03:52:57 68° SSE 03:59:44 10° E visible
08 Aug 10.0 01:19:17 28° ESE 01:19:17 28° ESE 01:23:42 10° E visible
08 Aug 8.8 03:16:41 41° SW 03:20:26 66° SSE 03:27:42 10° E visible
08 Aug 8.3 05:16:03 10° W 05:25:02 78° S 05:30:55 10° E visible
09 Aug 10.4 00:48:10 22° ESE 00:48:10 22° ESE 00:51:22 10° E visible
09 Aug 8.9 02:45:35 52° SSW 02:47:51 63° SSE 02:55:39 10° E visible
09 Aug 8.4 04:42:59 10° W 04:52:39 79° S 04:58:57 10° E visible
10 Aug 10.6 00:17:01 16° E 00:17:01 16° E 00:18:55 10° E visible
10 Aug 9.1 02:14:25 60° S 02:15:13 61° SSE 02:23:32 10° E visible
10 Aug 8.6 04:11:50 17° W 04:20:13 80° S 04:26:58 10° E visible
10 Aug 10.9 23:45:48 12° E 23:45:48 12° E 23:46:23 10° E visible
11 Aug 9.2 01:43:12 58° SE 01:43:12 58° SE 01:51:22 10° E visible
11 Aug 8.7 03:40:36 24° W 03:47:42 80° S 03:54:57 10° E visible
11 Aug11.123:14:30E23:14:30E22:51:35SSWvisible
12 Aug 9.5 01:11:53 50° ESE 01:11:53 50° ESE 01:19:09 10° E visible
12 Aug 8.8 03:09:17 33° WSW 03:15:06 79° S 03:22:54 10° E visible
12 Aug 8.5 05:10:21 10° W 05:19:51 68° SSW 05:26:02 10° ESE visible
12 Aug 11.1 22:21:01 10° S 22:43:06 - E 22:23:15 14° S visible
13 Aug 9.8 00:40:28 42° ESE 00:40:28 42° ESE 00:46:51 10° E visible
13 Aug 9.0 02:37:51 43° WSW 02:42:27 78° S 02:50:49 10° E visible
13 Aug 8.6 04:37:08 10° W 04:47:27 72° SSW 04:54:06 10° ESE visible
13 Aug 10.7 21:48:46 10° S 22:11:31 - E 21:55:22 20° SSE visible
